Hourly Data Report for October 03, 2013

All times are specified in Local Standard Time (LST). Add 1 hour to adjust for Daylight Saving Time where and when it is observed.

MONCTON INTL A
NEW BRUNSWICK

46°06'44.000" N
64°40'43.000" W
70.70 m
8103201
71705
YQM

Download Data

Hourly Data (October 2013)
Hourly Data Report for October 3, 2013
Temp Definition
°C
Dew Point Temp Definition
°C
Rel Hum Definition
%
Wind Dir Definition
10's deg

Wind Spd Definition
km/h
Visibility Definition
km
Stn Press Definition
kPa
Hmdx Definition


Wind Chill Definition


Weather Definition


TIME
00:00 Legend Double Dagger 13.8 9.7 76 24 18 24.1 99.72     LegendNANA
01:00 Legend Double Dagger 13.2 8.7 74 24 13 24.1 99.78     LegendNANA
02:00 Legend Double Dagger 13.5 8.4 71 22 10 24.1 99.82     Mostly Cloudy
03:00 Legend Double Dagger 12.6 6.0 64 25 13 24.1 99.86     LegendNANA
04:00 Legend Double Dagger 10.9 6.9 76 23 14 24.1 99.91     LegendNANA
05:00 Legend Double Dagger 11.1 6.1 71 25 18 24.1 99.95     Clear
06:00 Legend Double Dagger 10.7 6.3 74 25 21 24.1 100.01     LegendNANA
07:00 Legend Double Dagger 11.1 6.1 71 25 19 24.1 100.10     LegendNANA
08:00 Legend Double Dagger 13.0 6.4 64 26 28 24.1 100.15     Clear
09:00 Legend Double Dagger 14.7 6.6 58 28 30 24.1 100.21     LegendNANA
10:00 Legend Double Dagger 16.3 6.2 51 28 30 24.1 100.19     LegendNANA
11:00 Legend Double Dagger 17.7 7.8 52 28 22 24.1 100.19     Clear
12:00 Legend Double Dagger 18.7 6.3 44 26 28 24.1 100.15     LegendNANA
13:00 Legend Double Dagger 19.3 6.9 44 27 25 24.1 100.10     LegendNANA
14:00 Legend Double Dagger 19.4 6.6 43 28 29 24.1 100.12     Clear
15:00 Legend Double Dagger 19.3 6.2 42 27 28 24.1 100.14     LegendNANA
16:00 Legend Double Dagger 18.8 5.8 42 27 32 24.1 100.17     LegendNANA
17:00 Legend Double Dagger 18.0 5.7 44 28 24 24.1 100.20     Clear
18:00 Legend Double Dagger 15.6 5.6 51 26 15 24.1 100.23     LegendNANA
19:00 Legend Double Dagger 13.6 5.3 57 26 14 24.1 100.29     LegendNANA
20:00 Legend Double Dagger 13.9 5.6 57 27 19 24.1 100.35     Clear
21:00 Legend Double Dagger 13.5 5.2 57 27 18 24.1 100.41     LegendNANA
22:00 Legend Double Dagger 12.6 5.1 60 27 20 24.1 100.48     LegendNANA
23:00 Legend Double Dagger 11.8 5.0 63 26 16 24.1 100.51     Clear

Notes on Data Quality.

Legend

  • E = Estimated
  • M = Missing
  • NA = Not Available
  • ‡ = Partner data that is not subject to review by the National Climate Archives
Date modified: